Погода в Пейе

Кипр     34°52′54″N   32°22′48″E
темп.,
°C
ветер,
м/с
пор.,
м/с
влажн.,
%
обл.,
%
осадки,
мм/ч
давл.,
гПа
погр.,
м
18 января, пн
пн1823:00+8з1014730 0.0 1011766
02:00+8з9127343 0.4 1011860
05:00+8з9137286 0.6 1013654
08:00+8з697658 0.9 1014924
11:00+10з8106734 0.4 10161366
14:00+10зюз896759 1.2 10151305
17:00+8зюз2373100 0.3 1015154
20:00+7св3394100 6.9 1013240
19 января, вт
вт1923:00+8вюв1393100 7.0 1014135
02:00+7ссв339691 7.3 1013121
05:00+6с239351 0.1 1015102
08:00+8ссз348364 0.4 1016480
11:00+9сз456371 0.1 10171112
14:00+9з236479 0.1 1015938
17:00+9зюз477191 0.6 1015555
20:00+6зюз597775 1.1 1015314
20 января, ср
ср2023:00+7з587079 0.8 1016390
02:00+7сз596490 1.7 1015503
05:00+6сз587253 0.4 1016293
08:00+6сз696452 0.7 1018473
11:00+8ссз77570 0.0 10201230
14:00+8ссз67490 0.0 1021989
17:00+6с45640 0.0 1023171
20:00+4всв12660 0.0 102587
21 января, чт
чт2123:00+3вюв12560 0.0 102631
02:00+3вюв11540 0.0 102635
05:00+3юв11570 0.0 102738
08:00+6юв11590 0.0 102940
11:00+11зсз223812 0.0 1029783
14:00+12зсз324038 0.0 1028912
17:00+8сз1258100 0.0 102879
20:00+6всв116598 0.0 102978
22 января, пт
пт2223:00+5в11670 0.0 102934
02:00+4вюв11670 0.0 102834
05:00+4вюв12630 0.0 102739
08:00+7вюв12620 0.0 102937
11:00+11ссз015098 0.0 1028629
14:00+12сз325699 0.0 1026842
17:00+9сз1272100 0.0 102569
20:00+8ююв0177100 0.0 102654